| time (UTC) | temp C | wind direction | speed KPH | gust KPH | rain 1hr cm | rain 24hr cm | rain mn cm | humidity % | barometer mb |
| 20260507213052 | 27 | 122 | 3.2 | 11.3 | 0.00 | 0.05 | 0.05 | 100 | 1014.0 |
| 20260507211556 | 27 | 115 | 3.2 | 9.7 | 0.00 | 0.05 | 0.05 | 100 | 1013.9 |
| 20260507210059 | 27 | 141 | 6.4 | 14.5 | 0.00 | 0.05 | 0.05 | 100 | 1013.8 |
| 20260507204551 | 27 | 149 | 3.2 | 11.3 | 0.00 | 0.05 | 0.05 | 100 | 1013.8 |
| 20260507203103 | 27 | 140 | 4.8 | 11.3 | 0.00 | 0.05 | 0.05 | 100 | 1013.8 |
| 20260507201600 | 27 | 139 | 6.4 | 16.1 | 0.00 | 0.05 | 0.05 | 100 | 1013.8 |
| 20260507200105 | 28 | 141 | 4.8 | 11.3 | 0.00 | 0.05 | 0.05 | 100 | 1013.9 |
| 20260507194554 | 28 | 129 | 8.0 | 16.1 | 0.00 | 0.05 | 0.05 | 100 | 1013.9 |
| 20260507193058 | 28 | 101 | 6.4 | 16.1 | 0.00 | 0.05 | 0.05 | 100 | 1014.0 |
| 20260507191600 | 28 | 143 | 4.8 | 14.5 | 0.00 | 0.05 | 0.05 | 100 | 1014.1 |
| 20260507190058 | 28 | 164 | 6.4 | 16.1 | 0.00 | 0.05 | 0.05 | 100 | 1014.0 |
| 20260507184558 | 28 | 113 | 8.0 | 17.7 | 0.00 | 0.05 | 0.05 | 100 | 1014.1 |
| 20260507183058 | 28 | 139 | 6.4 | 16.1 | 0.00 | 0.05 | 0.05 | 100 | 1014.2 |
| 20260507181552 | 28 | 131 | 8.0 | 16.1 | 0.00 | 0.05 | 0.05 | 100 | 1014.3 |
| 20260507180052 | 28 | 158 | 8.0 | 14.5 | 0.00 | 0.05 | 0.05 | 100 | 1014.4 |
| 20260507174552 | 28 | 131 | 6.4 | 17.7 | 0.00 | 0.05 | 0.05 | 100 | 1014.6 |
| 20260507173051 | 28 | 147 | 4.8 | 16.1 | 0.00 | 0.05 | 0.05 | 100 | 1014.9 |
| 20260507171600 | 29 | 159 | 8.0 | 24.1 | 0.00 | 0.05 | 0.05 | 100 | 1015.1 |
| 20260507164600 | 29 | 131 | 4.8 | 17.7 | 0.00 | 0.05 | 0.05 | 100 | 1015.3 |
| 20260507163052 | 29 | 117 | 8.0 | 17.7 | 0.00 | 0.05 | 0.05 | 100 | 1015.4 |
| 20260507161555 | 29 | 130 | 9.7 | 19.3 | 0.00 | 0.05 | 0.05 | 100 | 1015.7 |
| 20260507160054 | 29 | 120 | 6.4 | 17.7 | 0.00 | 0.05 | 0.05 | 100 | 1015.8 |
| 20260507154559 | 29 | 165 | 6.4 | 16.1 | 0.00 | 0.05 | 0.05 | 100 | 1016.0 |
| 20260507153051 | 29 | 123 | 8.0 | 20.9 | 0.00 | 0.05 | 0.05 | 100 | 1016.2 |
| 20260507151709 | 29 | 44 | 8.0 | 16.1 | 0.00 | 0.05 | 0.05 | 100 | 1016.3 |
| 20260507150106 | 30 | 124 | 8.0 | 16.1 | 0.00 | 0.05 | 0.05 | 100 | 1016.4 |
| 20260507144550 | 30 | 124 | 4.8 | 19.3 | 0.00 | 0.05 | 0.05 | 100 | 1016.5 |
| 20260507143107 | 29 | 117 | 8.0 | 20.9 | 0.00 | 0.05 | 0.05 | 100 | 1016.4 |
| 20260507141555 | 29 | 129 | 6.4 | 22.5 | 0.00 | 0.05 | 0.05 | 100 | 1016.4 |
| 20260507140052 | 28 | 120 | 6.4 | 14.5 | 0.05 | 0.05 | 0.05 | 100 | 1016.5 |
| 20260507134550 | 27 | 134 | 1.6 | 9.7 | 0.05 | 0.05 | 0.05 | 100 | 1016.8 |
| 20260507133106 | 27 | 172 | 4.8 | 11.3 | 0.05 | 0.05 | 0.05 | 100 | 1017.0 |
| 20260507131553 | 27 | 253 | 4.8 | 14.5 | 0.05 | 0.05 | 0.05 | 100 | 1017.1 |
| 20260507130106 | 28 | 140 | 4.8 | 14.5 | 0.00 | 0.00 | 0.00 | 100 | 1016.8 |
| 20260507124556 | 28 | 125 | 3.2 | 16.1 | 0.00 | 0.00 | 0.00 | 100 | 1016.9 |
| 20260507123055 | 28 | 158 | 6.4 | 16.1 | 0.00 | 0.00 | 0.00 | 100 | 1016.7 |
| 20260507121611 | 28 | 144 | 4.8 | 16.1 | 0.00 | 0.00 | 0.00 | 100 | 1016.6 |
| 20260507120058 | 28 | 106 | 8.0 | 14.5 | 0.00 | 0.00 | 0.00 | 100 | 1016.4 |
| 20260507114633 | 28 | 119 | 6.4 | 16.1 | 0.00 | 0.00 | 0.00 | 100 | 1016.4 |
| 20260507113052 | 28 | 134 | 6.4 | 12.9 | 0.00 | 0.00 | 0.00 | 100 | 1016.4 |
| 20260507111555 | 28 | 141 | 6.4 | 14.5 | 0.00 | 0.00 | 0.00 | 100 | 1016.2 |
| 20260507110051 | 27 | 151 | 6.4 | 14.5 | 0.00 | 0.00 | 0.00 | 100 | 1016.0 |
| 20260507104547 | 27 | 144 | 4.8 | 11.3 | 0.00 | 0.00 | 0.00 | 100 | 1016.0 |
| 20260507103049 | 26 | 172 | 6.4 | 14.5 | 0.00 | 0.00 | 0.00 | 100 | 1016.0 |
| 20260507101603 | 26 | 59 | 0.0 | 9.7 | 0.00 | 0.00 | 0.00 | 100 | 1016.0 |
| 20260507100050 | 26 | 0 | 1.6 | 8.0 | 0.00 | 0.00 | 0.00 | 100 | 1015.9 |
| 20260507094549 | 26 | 0 | 1.6 | 8.0 | 0.00 | 0.00 | 0.00 | 100 | 1015.7 |
| 20260507093051 | 26 | 0 | 0.0 | 8.0 | 0.00 | 0.00 | 0.00 | 100 | 1015.7 |
| 20260507091552 | 26 | 127 | 0.0 | 4.8 | 0.00 | 0.00 | 0.00 | 100 | 1015.6 |
| 20260507090050 | 26 | 0 | 0.0 | 8.0 | 0.00 | 0.00 | 0.00 | 100 | 1015.6 |
| 20260507084628 | 26 | 0 | 0.0 | 6.4 | 0.00 | 0.00 | 0.00 | 100 | 1015.5 |
| 20260507083053 | 25 | 0 | 0.0 | 3.2 | 0.00 | 0.00 | 0.00 | 100 | 1015.5 |
| 20260507081552 | 25 | 0 | 0.0 | 3.2 | 0.00 | 0.00 | 0.00 | 100 | 1015.3 |
| 20260507080112 | 25 | 0 | 0.0 | 1.6 | 0.00 | 0.00 | 0.00 | 100 | 1015.3 |
| 20260507074554 | 25 | 0 | 0.0 | 4.8 | 0.00 | 0.00 | 0.00 | 100 | 1015.2 |
| 20260507073055 | 25 | 0 | 0.0 | 3.2 | 0.00 | 0.00 | 0.00 | 100 | 1015.2 |
| 20260507071551 | 25 | 0 | 0.0 | 0.0 | 0.00 | 0.00 | 0.00 | 100 | 1015.4 |
| 20260507070049 | 24 | 0 | 0.0 | 0.0 | 0.00 | 0.00 | 0.00 | 100 | 1015.5 |
| 20260507064549 | 25 | 0 | 0.0 | 0.0 | 0.00 | 0.00 | 0.00 | 100 | 1015.6 |
| 20260507063056 | 25 | 0 | 0.0 | 0.0 | 0.00 | 0.00 | 0.00 | 100 | 1015.6 |
| 20260507061549 | 25 | 0 | 0.0 | 0.0 | 0.00 | 0.00 | 0.00 | 100 | 1015.8 |
| 20260507060050 | 25 | 0 | 0.0 | 0.0 | 0.00 | 0.00 | 0.00 | 100 | 1016.0 |
| 20260507054548 | 25 | 0 | 0.0 | 0.0 | 0.00 | 0.00 | 0.00 | 100 | 1016.0 |
| 20260507053050 | 26 | 0 | 0.0 | 3.2 | 0.00 | 0.00 | 0.00 | 100 | 1016.1 |
| 20260507051550 | 26 | 0 | 0.0 | 6.4 | 0.00 | 0.00 | 0.00 | 100 | 1016.1 |
| 20260507050051 | 26 | 146 | 0.0 | 6.4 | 0.00 | 0.00 | 0.00 | 100 | 1016.3 |
| 20260507044547 | 26 | 0 | 0.0 | 6.4 | 0.00 | 0.00 | 0.00 | 100 | 1016.5 |
| 20260507043051 | 26 | 0 | 0.0 | 1.6 | 0.00 | 0.00 | 0.00 | 100 | 1016.7 |
| 20260507041551 | 26 | 128 | 0.0 | 4.8 | 0.00 | 0.00 | 0.00 | 100 | 1016.9 |
| 20260507040057 | 26 | 0 | 0.0 | 4.8 | 0.00 | 0.00 | 0.00 | 100 | 1017.2 |
| 20260507034556 | 26 | 124 | 1.6 | 6.4 | 0.00 | 0.00 | 0.00 | 100 | 1017.4 |
| 20260507033055 | 26 | 0 | 1.6 | 6.4 | 0.00 | 0.00 | 0.00 | 100 | 1017.6 |
| 20260507031550 | 26 | 0 | 0.0 | 3.2 | 0.00 | 0.00 | 0.00 | 100 | 1017.6 |
| 20260507030055 | 26 | 141 | 1.6 | 6.4 | 0.00 | 0.00 | 0.00 | 100 | 1017.7 |
| 20260507024604 | 27 | 142 | 3.2 | 8.0 | 0.00 | 0.00 | 0.00 | 100 | 1017.8 |
| 20260507023053 | 27 | 0 | 1.6 | 11.3 | 0.00 | 0.00 | 0.00 | 100 | 1017.8 |
| 20260507021553 | 27 | 64 | 1.6 | 8.0 | 0.00 | 0.00 | 0.00 | 100 | 1017.8 |
| 20260507020107 | 27 | 155 | 1.6 | 9.7 | 0.00 | 0.00 | 0.00 | 100 | 1017.8 |
| 20260507014601 | 26 | 135 | 1.6 | 4.8 | 0.00 | 0.00 | 0.00 | 100 | 1017.7 |
| 20260507013055 | 27 | 82 | 1.6 | 9.7 | 0.00 | 0.00 | 0.00 | 100 | 1017.7 |
| 20260507011551 | 27 | 93 | 1.6 | 6.4 | 0.00 | 0.00 | 0.00 | 100 | 1017.6 |
| 20260507010059 | 27 | 44 | 0.0 | 9.7 | 0.00 | 0.00 | 0.00 | 100 | 1017.6 |
| 20260507004602 | 27 | 71 | 3.2 | 9.7 | 0.00 | 0.00 | 0.00 | 100 | 1017.5 |
| 20260507003053 | 27 | 146 | 1.6 | 8.0 | 0.00 | 0.00 | 0.00 | 100 | 1017.4 |
| 20260507001551 | 26 | 0 | 0.0 | 6.4 | 0.00 | 0.00 | 0.00 | 100 | 1017.3 |
| 20260507000053 | 27 | 0 | 0.0 | 4.8 | 0.00 | 0.00 | 0.00 | 100 | 1017.1 |
| 20260506234553 | 27 | 0 | 1.6 | 9.7 | 0.00 | 0.00 | 0.00 | 100 | 1017.1 |
| 20260506233103 | 27 | 140 | 0.0 | 8.0 | 0.00 | 0.00 | 0.00 | 100 | 1016.8 |
| 20260506231556 | 27 | 147 | 1.6 | 8.0 | 0.00 | 0.00 | 0.00 | 100 | 1016.6 |
| 20260506230056 | 27 | 117 | 1.6 | 9.7 | 0.00 | 0.00 | 0.00 | 100 | 1016.6 |
| 20260506224553 | 27 | 129 | 3.2 | 8.0 | 0.00 | 0.00 | 0.00 | 100 | 1016.5 |
| 20260506223059 | 27 | 113 | 3.2 | 9.7 | 0.00 | 0.00 | 0.00 | 100 | 1016.4 |
| 20260506221612 | 27 | 124 | 1.6 | 8.0 | 0.00 | 0.00 | 0.00 | 100 | 1016.2 |
| 20260506220053 | 27 | 73 | 4.8 | 12.9 | 0.00 | 0.00 | 0.00 | 100 | 1015.9 |
| 20260506214556 | 27 | 132 | 3.2 | 11.3 | 0.00 | 0.00 | 0.00 | 100 | 1015.7 |